Date String (YYYY-MM-DD hh:mm:ss) UTC,Instrument flags,Ambient pressure (hPa),Sample flow (lpm),Bypass flow (lpm),Sample temperature (°C),Ambient temperature (°C),ASC tube jacket temperature (°C),LED temperature (°C),Box temperature (°C),Sample RH (%),Span deviation,Mass concentration (μg/m³),Mass concentration (μg/m³),Mass concentration (μg/m³)
DateTimeUTC,F1_M11,P_M11,Q1_M11,Q2_M11,T1_M11,T2_M11,T3_M11,T4_M11,T5_M11,U1_M11,ZSPAN_M11,X0_M11,X2_M11,X1_M11
2022-02-06 07:00:00,,0829.0,4.99,0.00,22.6,21.9,00.0,31.6,24.3,08.9,0000.0,0006.92,0003.09,0002.47
2022-02-06 07:01:00,,0828.9,5.01,0.00,22.6,21.8,00.0,31.6,24.3,08.8,0000.0,0006.80,0003.12,0002.47
2022-02-06 07:02:00,,0829.0,4.99,0.00,22.6,21.8,00.0,31.6,24.3,08.7,0000.0,0005.66,0003.13,0002.48
2022-02-06 07:03:00,,0829.0,5.00,0.00,22.6,21.8,00.0,31.6,24.3,08.7,0000.0,0005.62,0003.11,0002.47
2022-02-06 07:04:00,,0829.0,5.00,0.00,22.5,21.7,00.0,31.6,24.3,08.6,0000.0,0007.10,0003.10,0002.49
2022-02-06 07:05:00,,0829.0,5.00,0.00,22.5,21.7,00.0,31.5,24.3,08.5,0000.0,0006.85,0003.06,0002.49
2022-02-06 07:06:00,,0829.0,5.01,0.00,22.5,21.7,00.0,31.5,24.3,08.5,0000.0,0006.85,0003.04,0002.46
2022-02-06 07:07:00,,0829.1,4.99,0.00,22.5,21.7,00.0,31.5,24.3,08.6,0000.0,0007.03,0003.07,0002.45
2022-02-06 07:08:00,,0829.1,5.00,0.00,22.5,21.7,00.0,31.5,24.3,08.7,0000.0,0007.72,0003.08,0002.46
2022-02-06 07:09:00,,0829.0,5.00,0.00,22.5,21.7,00.0,31.5,24.3,08.7,0000.0,0007.81,0003.12,0002.47
2022-02-06 07:10:00,,0829.1,4.99,0.00,22.5,21.7,00.0,31.5,24.3,08.6,0000.0,0007.61,0003.06,0002.47
2022-02-06 07:11:00,,0829.2,5.01,0.00,22.5,21.7,00.0,31.5,24.3,08.7,0000.0,0007.56,0003.04,0002.47
2022-02-06 07:12:00,,0829.2,5.00,0.00,22.5,21.7,00.0,31.5,24.3,08.7,0000.0,0007.85,0003.06,0002.48
2022-02-06 07:13:00,,0829.2,5.00,0.00,22.5,21.6,00.0,31.5,24.2,08.9,0000.0,0008.28,0003.06,0002.47
2022-02-06 07:14:00,,0829.2,5.00,0.00,22.5,21.6,00.0,31.5,24.2,09.0,0000.0,0008.42,0003.08,0002.46
2022-02-06 07:15:00,,0829.2,5.02,0.00,22.5,21.6,00.0,31.5,24.2,09.0,0000.0,0007.67,0003.08,0002.46
2022-02-06 07:16:00,,0829.2,5.00,0.00,22.4,21.6,00.0,31.4,24.2,09.0,0000.0,0007.46,0003.13,0002.48
2022-02-06 07:17:00,,0829.2,4.99,0.00,22.4,21.6,00.0,31.4,24.2,09.0,0000.0,0007.58,0003.16,0002.54
2022-02-06 07:18:00,,0829.2,5.01,0.00,22.4,21.6,00.0,31.4,24.2,09.1,0000.0,0007.53,0003.17,0002.57
2022-02-06 07:19:00,,0829.2,4.99,0.00,22.4,21.6,00.0,31.4,24.2,09.1,0000.0,0006.64,0003.17,0002.58
2022-02-06 07:20:00,,0829.2,5.00,0.00,22.4,21.6,00.0,31.4,24.2,09.2,0000.0,0006.44,0003.14,0002.59
2022-02-06 07:21:00,,0829.2,4.99,0.00,22.4,21.6,00.0,31.4,24.1,09.2,0000.0,0007.09,0003.12,0002.59
2022-02-06 07:22:00,,0829.2,5.01,0.00,22.4,21.6,00.0,31.4,24.1,09.3,0000.0,0008.42,0003.12,0002.58
2022-02-06 07:23:00,,0829.2,4.98,0.00,22.4,21.6,00.0,31.4,24.1,09.2,0000.0,0008.16,0003.06,0002.56
2022-02-06 07:24:00,,0829.3,4.99,0.00,22.4,21.6,00.0,31.4,24.0,09.2,0000.0,0007.67,0003.03,0002.55
2022-02-06 07:25:00,,0829.3,5.01,0.00,22.3,21.7,00.0,31.4,24.0,09.1,0000.0,0007.56,0003.03,0002.55
2022-02-06 07:26:00,,0829.3,4.99,0.00,22.4,22.1,00.0,31.4,24.2,09.0,0000.0,0007.62,0003.05,0002.55
2022-02-06 07:27:00,,0829.4,5.00,0.00,22.5,22.9,00.0,31.5,24.5,09.0,0000.0,0007.64,0003.05,0002.54
2022-02-06 07:28:00,,0829.4,5.01,0.00,22.7,23.1,00.0,31.5,24.6,08.9,0000.0,0007.55,0003.01,0002.50
2022-02-06 07:29:00,,0829.5,5.00,0.00,22.7,22.9,00.0,31.5,24.6,08.9,0000.0,0007.56,0003.01,0002.47
2022-02-06 07:30:00,,0829.5,5.00,0.00,22.7,22.8,00.0,31.5,24.6,08.9,0000.0,0007.63,0003.03,0002.45
2022-02-06 07:31:00,,0829.4,5.00,0.00,22.7,22.6,00.0,31.5,24.6,08.8,0000.0,0008.02,0003.02,0002.42
2022-02-06 07:32:00,,0829.4,5.02,0.00,22.7,22.5,00.0,31.5,24.5,08.8,0000.0,0007.99,0003.00,0002.39
2022-02-06 07:33:00,,0829.3,4.99,0.00,22.7,22.4,00.0,31.6,24.5,08.8,0000.0,0007.42,0003.01,0002.36
2022-02-06 07:34:00,,0829.3,4.99,0.00,22.7,22.3,00.0,31.6,24.4,08.8,0000.0,0008.15,0003.03,0002.36
2022-02-06 07:35:00,,0829.4,5.00,0.00,22.7,22.2,00.0,31.6,24.4,08.8,0000.0,0008.98,0003.11,0002.37
2022-02-06 07:36:00,,0829.4,4.99,0.00,22.6,22.1,00.0,31.6,24.4,08.8,0000.0,0009.01,0003.14,0002.37
2022-02-06 07:37:00,,0829.4,5.01,0.00,22.6,22.0,00.0,31.6,24.4,08.8,0000.0,0008.96,0003.15,0002.37
2022-02-06 07:38:00,,0829.4,4.99,0.00,22.6,22.0,00.0,31.6,24.3,08.7,0000.0,0008.93,0003.15,0002.36
2022-02-06 07:39:00,,0829.4,4.99,0.00,22.6,21.9,00.0,31.6,24.3,08.7,0000.0,0008.94,0003.13,0002.37
2022-02-06 07:40:00,,0829.4,5.01,0.00,22.6,21.9,00.0,31.6,24.3,08.7,0000.0,0008.98,0003.15,0002.37
2022-02-06 07:41:00,,0829.4,4.99,0.00,22.6,21.9,00.0,31.6,24.3,08.7,0000.0,0008.92,0003.15,0002.37
2022-02-06 07:42:00,,0829.4,5.00,0.00,22.5,21.9,00.0,31.5,24.2,08.7,0000.0,0008.66,0003.15,0002.37
2022-02-06 07:43:00,,0829.5,5.00,0.00,22.5,21.8,00.0,31.5,24.3,08.7,0000.0,0008.54,0003.16,0002.36
2022-02-06 07:44:00,,0829.4,4.99,0.00,22.5,21.8,00.0,31.5,24.2,08.7,0000.0,0007.85,0003.15,0002.37
2022-02-06 07:45:00,,0829.4,5.01,0.00,22.5,21.8,00.0,31.5,24.2,08.7,0000.0,0006.63,0003.13,0002.37
2022-02-06 07:46:00,,0829.5,4.98,0.00,22.5,21.8,00.0,31.5,24.2,08.7,0000.0,0005.05,0003.12,0002.37
2022-02-06 07:47:00,,0829.4,5.01,0.00,22.4,21.7,00.0,31.5,24.2,08.8,0000.0,0005.05,0003.10,0002.37
2022-02-06 07:48:00,,0829.5,5.00,0.00,22.4,21.7,00.0,31.5,24.1,08.8,0000.0,0005.11,0003.11,0002.39
2022-02-06 07:49:00,,0829.5,4.99,0.00,22.4,21.7,00.0,31.5,24.1,08.8,0000.0,0005.13,0003.11,0002.39
2022-02-06 07:50:00,,0829.5,5.01,0.00,22.4,21.7,00.0,31.5,24.1,08.7,0000.0,0005.22,0003.12,0002.37
2022-02-06 07:51:00,,0829.6,4.99,0.00,22.4,21.7,00.0,31.5,24.1,08.7,0000.0,0005.94,0003.06,0002.35
2022-02-06 07:52:00,,0829.5,5.01,0.00,22.4,21.6,00.0,31.5,24.1,08.7,0000.0,0007.31,0003.06,0002.34
2022-02-06 07:53:00,,0829.5,4.99,0.00,22.3,21.5,00.0,31.4,24.0,08.7,0000.0,0007.65,0003.05,0002.33
2022-02-06 07:54:00,,0829.6,5.01,0.00,22.3,21.5,00.0,31.4,24.0,08.7,0000.0,0007.63,0003.07,0002.34
2022-02-06 07:55:00,,0829.5,5.01,0.00,22.3,21.5,00.0,31.4,23.9,08.7,0000.0,0007.69,0003.09,0002.35
2022-02-06 07:56:00,,0829.5,4.99,0.00,22.2,21.5,00.0,31.4,23.9,08.7,0000.0,0007.90,0003.10,0002.35
2022-02-06 07:57:00,,0829.5,5.02,0.00,22.2,21.5,00.0,31.4,23.9,08.6,0000.0,0007.92,0003.09,0002.33
2022-02-06 07:58:00,,0829.5,4.98,0.00,22.2,21.4,00.0,31.3,23.9,08.6,0000.0,0007.83,0003.03,0002.31
2022-02-06 07:59:00,,0829.5,5.01,0.00,22.2,21.5,00.0,31.3,23.9,08.7,0000.0,0007.78,0002.96,0002.28
